NUSAT-22 (SOFYA)

Last updated on Sat Dec 16 2023 00:02:25 GMT+0000 (Coordinated Universal Time)

1 48919U 21059AS 23348.70667672 .05646830 24889-5 95890-3 0 9991 2 48919 97.3877 137.7655 0008363 280.5943 79.4410 16.33088873138935

Satellite not in orbit